Retour au catalogue

IRIDIUM 33 DEB

ActifPO
NORAD 33960·DEBRIS·🇺🇸 United States

Lancé Sep 14, 1997 depuis Baikonur Cosmodrome

Loading…

Prochains Passages (prochaines 24 heures)

TLE

FraisSource: Space-Track

Époque: Sep 13, 2026, 17:55 UTC

1 33960U 97051BV  26256.74681233  .00010353  00000-0  91823-3 0  9996
2 33960  86.2587 158.5653 0002364  96.5216 317.3403 14.96094891929671

Suivez IRIDIUM 33 DEB en temps réel avec AllMySat

Download on the App Store